[[{"header":{"parameterUnit":"m.s-1","parameterCategory":1,"la1":30.2991,"la2":30.254,"lo1":-89.0895,"lo2":-89.0444,"dy":0.0017,"dx":0.0017,"nx":28,"ny":28,"refTime":"2023-08-21T03:00:00:Z","depth":0,"parameterNumber":2,"parameterNumberName":"U-component_of_WINDS"},"data":[0,0,0,0,0,0,0,0,0,0,0,0,0,0,0,0,0,0,0,0,0,0,0,0,0,0,0,0,0,0,0,0,0,0,0,0,0,0,0,0,0,0,0,0,0,0,0,0,0,0,0,0,0,0,0,0,0,0,-5.8454,-5.8455,0,-5.854,-5.8541,-5.8542,-5.8406,-5.8401,-5.8397,-5.8392,-5.8481,-5.8487,-5.8494,0,0,0,0,0,0,0,0,0,0,0,0,0,-5.8174,-5.818,-5.8454,-5.8455,-5.8456,-5.854,-5.8541,-5.8542,-5.8407,-5.8401,-5.8396,-5.839,-5.8478,-5.8486,-5.8494,0,0,0,0,0,0,0,0,0,0,0,0,0,-5.8281,-5.8181,-5.8454,-5.8399,-5.8395,-5.854,-5.8541,-5.8542,-5.8408,-5.8401,-5.8394,-5.8388,-5.8476,-5.8486,-5.8496,-5.8698,0,0,-5.8526,-5.8531,0,0,0,0,0,0,0,0,-5.8275,-5.8292,-5.8406,-5.8403,-5.8399,-5.8455,-5.8474,-5.8595,-5.841,-5.8403,-5.8392,-5.8384,-5.8478,-5.8487,-5.8519,-5.8702,-5.8706,-5.8527,-5.8533,-5.8538,-5.854,0,0,0,0,0,0,0,-5.8268,-5.8287,-5.8488,-5.8408,-5.8404,-5.837,-5.8378,-5.8496,-5.8479,-5.8403,-5.8394,-5.8406,-5.8474,-5.8509,-5.852,-5.8707,-5.8527,-5.8536,-5.8542,-5.8546,-5.9059,-5.9067,0,0,0,0,0,0,-5.8267,-5.8282,-5.8485,-5.8491,-5.8318,-5.8381,-5.8389,-5.8444,-5.8477,-5.8475,-5.8412,-5.8399,-5.8496,-5.8508,-5.8522,-5.8759,-5.8537,-5.8547,-5.8553,-5.9052,-5.9061,-5.9069,0,0,0,0,0,0,-5.8262,-5.8287,-5.8482,-5.8384,-5.8406,-5.8393,-5.8456,-5.845,-5.8484,-5.8483,-5.848,-5.845,-5.8491,-5.8508,-5.8655,-5.8761,-5.8551,-5.8561,-5.9043,-5.9055,-5.9065,-5.9237,0,0,0,0,0,0,-5.8254,-5.8286,-5.8362,-5.8386,-5.8412,-5.8613,-5.8463,-5.8456,-5.8502,-5.8486,-5.8519,-5.8517,-5.8486,-5.8641,-5.8665,-5.8771,-5.8568,-5.9033,-5.9048,-5.9062,-5.9222,-5.9253,-5.9279,0,0,0,0,0,-5.8245,-5.8408,-5.8367,-5.8392,-5.8507,-5.862,-5.8634,-5.8595,-5.8511,-5.8588,-5.8587,-5.8516,-5.8746,-5.8657,-5.8683,-5.8794,-5.9026,-5.9044,-5.9061,-5.9209,-5.9247,-5.9279,0,0,0,0,0,0,-5.8396,-5.841,-5.8364,-5.854,-5.858,-5.8596,-5.8692,-5.8637,-5.8701,-5.8684,-5.8633,-5.8641,-5.8798,-5.8811,-5.8711,-5.8991,-5.8872,-5.8895,-5.8976,-5.9012,-5.904,-5.9032,-5.8577,0,0,0,0,0,-5.845,-5.854,-5.8547,-5.8701,-5.8724,-5.8705,-5.8752,-5.8719,-5.8758,-5.8774,-5.8784,-5.8825,-5.8906,-5.896,-5.9035,-5.9224,-5.9228,-5.9313,-5.9342,-5.9366,-5.9385,-5.9485,-5.9522,-5.9126,-5.9125,-5.9125,0,0,-5.8561,-5.858,-5.864,-5.8732,-5.8759,-5.8853,-5.872,-5.8825,-5.8894,-5.879,-5.8928,-5.8938,-5.898,-5.9148,-5.9223,-5.9163,-5.9496,-5.9388,-5.9407,-5.9413,-5.9506,-5.9543,-5.9577,-5.9137,-5.9135,-5.9133,0,0,-5.8812,-5.8837,-5.8967,-5.8996,-5.9039,-5.9025,-5.9057,-5.9083,-5.9085,-5.9223,-5.9146,-5.9228,-5.937,-5.9402,-5.9437,-5.9702,-5.9639,-5.9729,-5.9878,-5.9975,-6.0006,-6.0034,-6.0125,-6.0159,-5.9749,-5.9749,-5.975,0,-5.8945,-5.9084,-5.9041,-5.9151,-5.9193,-5.9104,-5.9235,-5.9266,-5.9331,-5.9362,-5.9295,-5.947,-5.9492,-5.9666,-5.9731,-5.9763,-5.9796,-5.9722,-6.0005,-6.0032,-6.0057,-6.0144,-6.0179,-5.976,-5.9758,-5.9757,-5.9756,0,-5.9244,-5.9342,-5.9442,-5.9506,-5.956,-5.968,-5.9655,-5.9715,-5.9678,-5.9672,-5.9814,-5.9838,-5.9915,-5.9954,-5.992,-6.0124,-6.0085,-6.0014,-5.9892,-6.0106,-6.0187,-6.022,-5.9774,-5.9771,-5.9768,-5.9765,0,0,-5.9589,-5.9629,-5.9666,-5.9694,-5.9735,-5.9809,-5.9926,-6.0001,-6.0052,-6.0101,-6.0196,-6.0319,-6.0252,-6.0292,-6.0261,-6.0347,-6.0552,-6.0264,-6.0264,-6.0314,-6.0776,-6.0827,-6.0867,-6.0512,-6.0518,-6.0523,-6.0771,0,-5.9836,-6.0036,-6.0002,-6.0196,-6.0284,-6.0202,-6.0303,-6.034,-6.0338,-6.0413,-6.0411,-6.0497,-6.0404,-6.0427,-6.0509,-6.051,-6.0644,-6.0492,-6.0598,-6.0603,-6.0586,-6.0909,-6.0964,-6.1196,-6.0803,-6.0808,-6.0812,0,-6.015,-6.021,-6.0413,-6.0439,-6.0475,-6.0567,-6.0632,-6.0706,-6.0745,-6.0738,-6.0784,-6.0736,-6.0852,-6.0733,-6.0891,-6.0789,-6.0831,-6.0838,-6.0846,-6.0852,-6.0718,-6.092,-6.127,-6.1304,-6.0862,-6.0858,-6.0855,0,-6.0378,-6.051,-6.0647,-6.0674,-6.0709,-6.0775,-6.0793,-6.0825,-6.0873,-6.0931,-6.0961,-6.1033,-6.1072,-6.1129,-6.1102,-6.1018,-6.1265,-6.1143,-6.126,-6.1261,-6.1312,-6.1309,-6.1671,-6.1346,-6.1346,-6.1345,-6.1345,0,-6.0655,-6.0782,-6.0749,-6.0834,-6.0973,-6.0933,-6.1072,-6.108,-6.1111,-6.1195,-6.113,-6.121,-6.1172,-6.125,-6.123,-6.1363,-6.1382,-6.1378,-6.1371,-6.1382,-6.1382,-6.1406,-6.1388,-6.1354,-6.1352,-6.1351,-6.1349,0,-6.0931,-6.0915,-6.1059,-6.1081,-6.1089,-6.1191,-6.1209,-6.1288,-6.1282,-6.139,-6.1413,-6.1404,-6.1492,-6.1472,-6.157,-6.1556,-6.1722,-6.1697,-6.1709,-6.1701,-6.1817,-6.1806,-6.2204,-6.2253,-6.1901,-6.1904,-6.1907,0,-6.1107,-6.1202,-6.1234,-6.1286,-6.1309,-6.1393,-6.1441,-6.1406,-6.1459,-6.1512,-6.1584,-6.1667,-6.1731,-6.1876,-6.1878,-6.1952,-6.1926,-6.206,-6.1936,-6.1944,-6.1924,-6.1917,-6.1925,-6.2084,-6.2088,-6.2091,-6.2094,0,-6.142,-6.1407,-6.1479,-6.1549,-6.1608,-6.1661,-6.1708,-6.1754,-6.1723,-6.1786,-6.1875,-6.1925,-6.2024,-6.2107,-6.2175,-6.2193,-6.2139,-6.2134,-6.2164,-6.2174,-6.2176,-6.2173,-6.1772,-6.2124,-6.2121,-6.2118,-6.2117,-6.2116,-6.1649,-6.1729,-6.1764,-6.1846,-6.1878,-6.1923,-6.1998,-6.2002,-6.2076,-6.2153,-6.2129,-6.223,-6.2268,-6.2354,-6.2381,-6.246,-6.2409,-6.2454,-6.2464,-6.2475,-6.2488,-6.2167,-6.2473,-6.2472,-6.2471,-6.247,-6.247,0,-6.1955,-6.1974,-6.205,-6.2118,-6.2182,-6.2127,-6.2176,-6.2233,-6.2323,-6.2363,-6.2427,-6.253,-6.261,-6.262,-6.2695,-6.2756,-6.2733,-6.2777,-6.277,-6.2775,-6.253,-6.2495,-6.2795,-6.2794,-6.2794,-6.2794,-6.2794,-6.2794,-6.2122,-6.2254,-6.2246,-6.2394,-6.2412,-6.251,-6.2543,-6.2585,-6.2616,-6.2733,-6.2799,-6.2805,-6.2832,-6.2909,-6.298,-6.2981,-6.301,-6.3063,-6.3054,-6.2825,-6.2792,-6.2761,-6.2727,-6.3071,-6.3071,-6.3291,-6.3293,-6.3295]},{"header":{"parameterUnit":"m.s-1","parameterCategory":1,"la1":30.2991,"la2":30.254,"lo1":-89.0895,"lo2":-89.0444,"dy":0.0017,"dx":0.0017,"nx":28,"ny":28,"refTime":"2023-08-21T03:00:00:Z","depth":0,"parameterNumber":3,"parameterNumberName":"V-component_of_WINDS"},"data":[0,0,0,0,0,0,0,0,0,0,0,0,0,0,0,0,0,0,0,0,0,0,0,0,0,0,0,0,0,0,0,0,0,0,0,0,0,0,0,0,0,0,0,0,0,0,0,0,0,0,0,0,0,0,0,0,0,0,0.6897,0.6897,0,0.6897,0.6897,0.6897,0.6868,0.6868,0.6867,0.6866,0.6867,0.6867,0.6868,0,0,0,0,0,0,0,0,0,0,0,0,0,0.6873,0.6874,0.6897,0.6897,0.6897,0.6897,0.6897,0.6897,0.6869,0.6868,0.6867,0.6866,0.6866,0.6867,0.6868,0,0,0,0,0,0,0,0,0,0,0,0,0,0.688,0.6874,0.6897,0.6883,0.6882,0.6897,0.6897,0.6897,0.6869,0.6868,0.6866,0.6865,0.6866,0.6867,0.6868,0.6898,0,0,0.6872,0.6872,0,0,0,0,0,0,0,0,0.6879,0.6881,0.6885,0.6884,0.6882,0.6882,0.6889,0.6898,0.6869,0.6874,0.6866,0.6865,0.6873,0.6873,0.6876,0.6898,0.6898,0.6872,0.6872,0.6873,0.6873,0,0,0,0,0,0,0,0.6879,0.6881,0.6897,0.6885,0.6884,0.6877,0.6877,0.6891,0.688,0.6873,0.6871,0.6871,0.6872,0.6875,0.6876,0.6898,0.6872,0.6873,0.6873,0.6874,0.6947,0.6948,0,0,0,0,0,0,0.688,0.688,0.6897,0.6897,0.6878,0.6878,0.6878,0.6883,0.6879,0.6878,0.6872,0.687,0.6873,0.6874,0.6875,0.6911,0.6873,0.6874,0.6875,0.6946,0.6947,0.6948,0,0,0,0,0,0,0.688,0.6882,0.6897,0.6888,0.689,0.688,0.6886,0.6884,0.6887,0.6879,0.6877,0.6877,0.6873,0.6874,0.6893,0.691,0.6874,0.6875,0.6944,0.6946,0.6948,0.6981,0,0,0,0,0,0,0.688,0.6882,0.6893,0.6889,0.689,0.6914,0.6887,0.6885,0.6889,0.6886,0.6883,0.6881,0.6872,0.6892,0.6894,0.6911,0.6876,0.6942,0.6945,0.6947,0.6978,0.6984,0.6989,0,0,0,0,0,0.6879,0.6902,0.6894,0.6896,0.6903,0.6915,0.6916,0.6905,0.689,0.6901,0.6896,0.6881,0.6908,0.6894,0.6896,0.6914,0.6941,0.6944,0.6947,0.6976,0.6983,0.6988,0,0,0,0,0,0,0.6908,0.6901,0.6892,0.6914,0.6916,0.691,0.6924,0.6912,0.6917,0.6914,0.69,0.69,0.6921,0.692,0.6904,0.6944,0.6922,0.6926,0.6943,0.695,0.6955,0.6954,0.6877,0,0,0,0,0,0.6917,0.6927,0.6921,0.6941,0.6942,0.6933,0.6938,0.6929,0.693,0.693,0.6927,0.6929,0.6938,0.6944,0.6952,0.6979,0.6978,0.6992,0.6997,0.7002,0.7004,0.702,0.7026,0.6958,0.6958,0.6958,0,0,0.6935,0.6933,0.694,0.6947,0.6947,0.6958,0.6934,0.6946,0.6955,0.6932,0.695,0.6948,0.6949,0.6973,0.6983,0.6972,0.7024,0.7005,0.7009,0.7009,0.7023,0.703,0.7036,0.696,0.696,0.6959,0,0,0.6975,0.6974,0.6991,0.6993,0.6993,0.6987,0.6992,0.6989,0.6987,0.7005,0.6989,0.6999,0.7015,0.7016,0.7019,0.7063,0.7049,0.7066,0.7092,0.7107,0.7112,0.7117,0.7133,0.7139,0.7069,0.7069,0.7069,0,0.6998,0.7013,0.7002,0.7016,0.702,0.7001,0.7019,0.7021,0.7024,0.7028,0.7016,0.7036,0.7035,0.706,0.707,0.7073,0.7079,0.7065,0.7113,0.7117,0.7121,0.7136,0.7142,0.7071,0.7071,0.7071,0.707,0,0.7042,0.7054,0.7068,0.7072,0.7078,0.7094,0.7085,0.7093,0.7084,0.708,0.7099,0.7099,0.7106,0.7112,0.7103,0.7135,0.7129,0.7115,0.7093,0.713,0.7144,0.7149,0.7074,0.7073,0.7073,0.7072,0,0,0.7097,0.7097,0.7102,0.7104,0.7105,0.7114,0.713,0.7138,0.7145,0.7149,0.7162,0.7177,0.7165,0.7169,0.7161,0.7174,0.7209,0.7159,0.7159,0.7168,0.7245,0.7255,0.7262,0.7201,0.7202,0.7203,0.7245,0,0.7135,0.7162,0.7153,0.7181,0.7192,0.7176,0.719,0.7193,0.719,0.7199,0.7196,0.7207,0.719,0.7193,0.7205,0.7202,0.7224,0.7199,0.7214,0.7214,0.7213,0.7269,0.7279,0.7319,0.7251,0.7251,0.7252,0,0.7183,0.7189,0.7218,0.7219,0.7223,0.7236,0.7243,0.7253,0.7256,0.7253,0.7258,0.7248,0.7265,0.7245,0.7268,0.7251,0.7257,0.7257,0.7258,0.7258,0.7235,0.727,0.7331,0.7337,0.726,0.726,0.7259,0,0.722,0.7236,0.7256,0.7258,0.7259,0.7269,0.727,0.7272,0.7278,0.7285,0.7289,0.7298,0.7303,0.7311,0.7304,0.7289,0.7329,0.7307,0.7327,0.7327,0.7335,0.7334,0.7397,0.734,0.734,0.734,0.734,0,0.7263,0.7281,0.7273,0.7285,0.7305,0.7296,0.7317,0.7316,0.7319,0.7331,0.7318,0.7329,0.732,0.7331,0.7326,0.7347,0.7349,0.7348,0.7346,0.7348,0.7348,0.7351,0.7348,0.7341,0.7341,0.7341,0.734,0,0.7308,0.7303,0.7323,0.7323,0.7324,0.7339,0.7339,0.7351,0.7348,0.7364,0.7367,0.7363,0.7376,0.737,0.7383,0.738,0.7407,0.7401,0.7405,0.7404,0.7424,0.7422,0.749,0.7498,0.7436,0.7437,0.7437,0,0.7335,0.7349,0.7351,0.7358,0.736,0.7372,0.7379,0.7371,0.7378,0.7385,0.7396,0.7408,0.7416,0.7438,0.7436,0.7447,0.7442,0.7465,0.7443,0.7446,0.7442,0.7441,0.7443,0.7469,0.747,0.747,0.7471,0,0.7384,0.7381,0.7391,0.7401,0.7409,0.7416,0.7422,0.7429,0.7422,0.7431,0.7444,0.7451,0.7466,0.7478,0.7488,0.749,0.7479,0.7478,0.7483,0.7485,0.7487,0.7486,0.7417,0.7476,0.7475,0.7475,0.7475,0.7475,0.742,0.7433,0.7437,0.7448,0.7452,0.7459,0.747,0.747,0.748,0.7491,0.7487,0.7502,0.7507,0.752,0.7523,0.7536,0.7527,0.7534,0.7536,0.7538,0.754,0.7486,0.7538,0.7537,0.7537,0.7537,0.7537,0,0.7469,0.7471,0.7482,0.7492,0.7501,0.7492,0.7499,0.7507,0.7521,0.7527,0.7537,0.7553,0.7565,0.7566,0.7577,0.7588,0.7583,0.7591,0.759,0.759,0.7548,0.7542,0.7594,0.7594,0.7594,0.7594,0.7594,0.7594,0.7495,0.7515,0.7514,0.7536,0.7539,0.7554,0.7559,0.7565,0.757,0.7588,0.7599,0.7599,0.7603,0.7615,0.7627,0.7627,0.7632,0.7641,0.7639,0.7599,0.7593,0.7588,0.7582,0.7642,0.7642,0.7681,0.7681,0.7682]}]]